TimeEDT,TemperatureF,Dew PointF,Humidity,Sea Level PressureIn,VisibilityMPH,Wind Direction,Wind SpeedMPH,Gust SpeedMPH,PrecipitationIn,Events,Conditions,WindDirDegrees,DateUTC
12:53 AM,35.1,24.1,64,30.04,10.0,West,3.5,-,N/A,,Clear,270,2014-03-10 04:53:00
1:53 AM,36.0,26.1,67,30.00,10.0,SW,3.5,-,N/A,,Clear,230,2014-03-10 05:53:00
2:53 AM,37.9,27.0,65,29.99,10.0,West,3.5,-,N/A,,Clear,260,2014-03-10 06:53:00
3:53 AM,37.0,28.0,70,29.97,10.0,WSW,3.5,-,N/A,,Clear,250,2014-03-10 07:53:00
4:53 AM,37.0,28.0,70,29.95,10.0,SSW,3.5,-,N/A,,Clear,210,2014-03-10 08:53:00
5:53 AM,37.9,28.9,70,29.94,10.0,Variable,4.6,-,N/A,,Clear,0,2014-03-10 09:53:00
6:53 AM,37.0,28.9,73,29.93,10.0,Variable,3.5,-,N/A,,Clear,0,2014-03-10 10:53:00
7:53 AM,36.0,28.9,76,29.93,10.0,SW,5.8,-,N/A,,Clear,220,2014-03-10 11:53:00
8:53 AM,41.0,33.1,73,29.93,8.0,WSW,6.9,-,N/A,,Clear,240,2014-03-10 12:53:00
9:53 AM,45.0,35.1,68,29.93,7.0,WSW,9.2,-,N/A,,Clear,240,2014-03-10 13:53:00
10:53 AM,46.0,36.0,68,29.91,7.0,WSW,9.2,-,N/A,,Clear,240,2014-03-10 14:53:00
11:53 AM,50.0,37.9,63,29.90,7.0,SW,9.2,-,N/A,,Partly Cloudy,230,2014-03-10 15:53:00
12:53 PM,55.0,37.9,53,29.88,9.0,WSW,10.4,-,N/A,,Clear,250,2014-03-10 16:53:00
1:53 PM,60.1,37.9,44,29.86,10.0,WSW,12.7,-,N/A,,Clear,240,2014-03-10 17:53:00
2:53 PM,62.1,37.9,41,29.81,10.0,SW,15.0,20.7,N/A,,Clear,230,2014-03-10 18:53:00
3:53 PM,62.1,37.9,41,29.78,10.0,SW,13.8,23.0,N/A,,Clear,220,2014-03-10 19:53:00
4:53 PM,64.0,37.0,37,29.77,10.0,SW,12.7,21.9,N/A,,Clear,230,2014-03-10 20:53:00
5:53 PM,63.0,37.0,38,29.75,10.0,SW,12.7,19.6,N/A,,Clear,230,2014-03-10 21:53:00
6:53 PM,62.1,36.0,38,29.74,10.0,SW,8.1,-,N/A,,Clear,230,2014-03-10 22:53:00
7:53 PM,59.0,36.0,42,29.75,10.0,SSW,5.8,-,N/A,,Clear,210,2014-03-10 23:53:00
8:53 PM,50.0,35.1,57,29.76,10.0,Calm,Calm,-,N/A,,Clear,0,2014-03-11 00:53:00
9:53 PM,46.9,36.0,66,29.77,10.0,Calm,Calm,-,N/A,,Clear,0,2014-03-11 01:53:00
10:53 PM,46.0,35.1,66,29.78,10.0,Calm,Calm,-,N/A,,Clear,0,2014-03-11 02:53:00
11:53 PM,44.1,36.0,73,29.78,10.0,Calm,Calm,-,N/A,,Clear,0,2014-03-11 03:53:00